Location: Asheville, NC
(35.6000°N, 82.5500°W)
Time: 15:29:53
(UTC-04:00)

BEESAT 3 - Pass Details

Date: 13 March 2018
Orbit: 500 x 516 km, 64.9° (Epoch: 25 June)

Event Time Altitude Azimuth Distance (km) Brightness Sun altitude
Exits shadow 06:24:39 36° 246° (WSW) 816 ? -16.9°
Drops below altitude 10° 06:28:11 10° 178° (S) 1,717 ? -16.2°
Sets 06:30:27 0° 170° (S) 2,594 ? -15.7°
